This is the latest recevied weather packets stored in our database for station/object KD9NSC. If no packets are shown the sender has not sent any weather packets the latest 10 day(s).
| Time | Temp. | Humidity | Pressure | Rain* | Wind** | Luminosity | Snow |
|---|---|---|---|---|---|---|---|
| 1777470038 | 10.56° C | 97% | 1014.4 hPa | 0 mm | - | 124 W/m² | - |
| 1777469734 | 10.56° C | 97% | 1014.6 hPa | 0 mm | - | 119 W/m² | - |
| 1777469430 | 10° C | 97% | 1014.5 hPa | 0 mm | - | 147 W/m² | - |
| 1777469125 | 9.44° C | 98% | 1014.5 hPa | 0 mm | - | 70 W/m² | - |
| 1777468825 | 8.89° C | 97% | 1014.6 hPa | 0 mm | - | 87 W/m² | - |
| 1777468522 | 8.89° C | 97% | 1014.6 hPa | 0 mm | - | 56 W/m² | - |
| 1777468218 | 8.33° C | 97% | 1014.6 hPa | 0 mm | - | 41 W/m² | - |
| 1777467915 | 8.33° C | 97% | 1014.7 hPa | 0 mm | - | 33 W/m² | - |
| 1777467611 | 8.33° C | 97% | 1014.6 hPa | 0 mm | - | 27 W/m² | - |
| 1777467306 | 8.33° C | 97% | 1014.5 hPa | 0 mm | - | 22 W/m² | - |
| 1777467002 | 8.33° C | 97% | 1014.7 hPa | 0 mm | - | 21 W/m² | - |
| 1777466700 | 7.78° C | 97% | 1014.8 hPa | 0 mm | - | 21 W/m² | - |
| 1777466397 | 7.78° C | 97% | 1015 hPa | 0 mm | - | 19 W/m² | - |
| 1777466093 | 7.78° C | 97% | 1014.8 hPa | 0 mm | - | 17 W/m² | - |
| 1777465789 | 7.78° C | 97% | 1014.7 hPa | 0 mm | - | 14 W/m² | - |
| 1777465485 | 7.78° C | 97% | 1014.5 hPa | 0 mm | - | 16 W/m² | - |
| 1777465184 | 8.33° C | 97% | 1014.6 hPa | 0 mm | - | 11 W/m² | - |
| 1777464879 | 8.33° C | 97% | 1014.9 hPa | 0 mm | - | 15 W/m² | - |
| 1777464575 | 8.33° C | 97% | 1014.5 hPa | 0 mm | - | 11 W/m² | - |
| 1777464271 | 8.89° C | 97% | 1014.6 hPa | 0 mm | - | 10 W/m² | - |
| 1777463967 | 8.89° C | 97% | 1014.2 hPa | 0 mm | - | 15 W/m² | - |
| 1777463662 | 8.89° C | 97% | 1014.4 hPa | 0 mm | - | 21 W/m² | - |
| 1777463357 | 8.89° C | 97% | 1014.2 hPa | 0 mm | - | 16 W/m² | - |
| 1777463054 | 9.44° C | 97% | 1013.9 hPa | 0 mm | - | 12 W/m² | - |
| 1777462749 | 9.44° C | 97% | 1013.9 hPa | 0 mm | - | 7 W/m² | - |
* Rain latest hour (hover to see other rain measurements)
** Current wind speed in m/s (hover to see current wind gust speed)